Location: Six Mile Lake
(44.9000°N, 79.7170°W)
Time: 19:13:59
(UTC-04:00)

ESTCUBE 1 - Pass Details

Date: 07 July 2022
Orbit: 645 x 657 km, 97.9° (Epoch: 16 August)

Event Time Altitude Azimuth Distance (km) Brightness Sun altitude
Exits shadow 00:44:42 12° 247° (WSW) 1,892 ? -21.9°
Maximum altitude 00:46:18 14° 270° (W) 1,771 ? -22.0°
Drops below altitude 10° 00:48:45 10° 304° (WNW) 2,057 ? -22.0°
Sets 00:51:58 0° 329° (NNW) 2,977 ? -22.1°
